Regional Weather Roundup
Issued by NWS

Home | Current Version | Previous Version | Text Only | Print | Product List | Glossary Off
Versions: 1 2 3 4 5 6 7 8 9 10 11 12 13 14 15 16 17 18 19 20 21 22 23 24 25 26 27 28 29 30 31 32 33 34 35 36 37 38 39 40 41 42 43 44 45 46 47 48 49 50

000
ASUS43 KLMK 011702
RWRKY
KENTUCKY REGIONAL WEATHER ROUNDUP
NATIONAL WEATHER SERVICE LOUISVILLE KY
1200 PM EST SUN MAR 01 2015

NOTE "FAIR" INDICATES FEW OR NO CLOUDS BELOW 12,000 FEET
WITH NO SIGNIFICANT WEATHER AND/OR OBSTRUCTIONS TO VISIBILITY.

KYZ001>023-026-027-061>063-070>075-011800-
WESTERN AND SOUTH CENTRAL KENTUCKY

CITY           SKY/WX    TMP DP  RH WIND       PRES   REMARKS
PADUCAH        CLOUDY    39  33  79 W6        30.35S WCI  35
HENDERSON      CLOUDY    36  30  80 NW7       30.37R WCI  30
OWENSBORO      CLOUDY    38  35  89 SW9       30.35S FOG     WCI  31
HOPKINSVILLE   CLOUDY    39  38  95 S5        30.36F
BOWLING GREEN  LGT RAIN  41  38  89 SE3       30.38F FOG
GLASGOW        NOT AVBL
$$

KYZ024-025-028>034-038-045-046-053-011800-
NORTH CENTRAL KENTUCKY

CITY           SKY/WX    TMP DP  RH WIND       PRES   REMARKS
LOUISVILLE/SDF LGT RAIN  37  35  92 SE5       30.34F FOG     WCI  33
LOUISVILLE/LOU LGT RAIN  36  33  89 S7        30.35S FOG     WCI  30
FORT KNOX      CLOUDY    39  37  93 S7        30.31F WCI  34
$$

KYZ035>037-039>044-047>052-055>060-089>105-011800-
NORTHEAST KENTUCKY

CITY           SKY/WX    TMP DP  RH WIND       PRES   REMARKS
LEXINGTON      LGT RAIN  39  36  89 S9        30.35F WCI  33
COVINGTON      CLOUDY    34  29  82 CALM      30.32F
FRANKFORT      LGT RAIN  38  35  89 S7        30.33F FOG     WCI  33
$$

KYZ054-064>069-076>088-106>120-011800-
SOUTHEAST KENTUCKY

CITY           SKY/WX    TMP DP  RH WIND       PRES   REMARKS
JACKSON        LGT RAIN  39  32  76 CALM      30.37S
LONDON         CLOUDY    46  31  55 CALM      30.37F
SOMERSET       NOT AVBL
MIDDLESBORO    NOT AVBL
MONTICELLO     CLOUDY    51  43  74 CALM      30.40F
$$



USA.gov is the U.S. government's official web portal to all federal, state and local government web resources and services.